This is the latest recevied weather packets stored in our database for station/object W4UWO. If no packets are shown the sender has not sent any weather packets the latest 10 day(s).
| Time | Temp. | Humidity | Pressure | Rain* | Wind** | Luminosity | Snow |
|---|---|---|---|---|---|---|---|
| 1788565239 | 35° C | 50% | 1014.9 hPa | 0 mm | - | 33 W/m² | - |
| 1788564939 | 35° C | 48% | 1015 hPa | 0 mm | - | 41 W/m² | - |
| 1788564635 | 35.56° C | 47% | 1015 hPa | 0 mm | - | 47 W/m² | - |
| 1788564332 | 36.11° C | 46% | 1014.9 hPa | 0 mm | - | 52 W/m² | - |
| 1788564028 | 36.11° C | 46% | 1014.6 hPa | 0 mm | - | 61 W/m² | - |
| 1788563724 | 36.11° C | 46% | 1014.6 hPa | 0 mm | - | 70 W/m² | - |
| 1788563418 | 35.56° C | 46% | 1014.7 hPa | 0 mm | - | 87 W/m² | - |
| 1788563117 | 36.11° C | 45% | 1014.6 hPa | 0 mm | - | 82 W/m² | - |
| 1788562813 | 36.11° C | 44% | 1014.7 hPa | 0 mm | - | 115 W/m² | - |
| 1788562511 | 36.11° C | 43% | 1014.7 hPa | 0 mm | - | 144 W/m² | - |
| 1788562210 | 36.11° C | 44% | 1014.6 hPa | 0 mm | - | 175 W/m² | - |
| 1788561906 | 36.11° C | 44% | 1014.6 hPa | 0 mm | - | 191 W/m² | - |
| 1788561605 | 36.11° C | 45% | 1014.6 hPa | 0 mm | - | 202 W/m² | - |
| 1788561304 | 35° C | 45% | 1014.7 hPa | 0 mm | - | 200 W/m² | - |
| 1788561001 | 35° C | 45% | 1014.8 hPa | 0 mm | - | 121 W/m² | - |
| 1788560696 | 35° C | 45% | 1014.6 hPa | 0 mm | - | 106 W/m² | - |
| 1788560390 | 35° C | 44% | 1014.7 hPa | 0 mm | - | 99 W/m² | - |
| 1788560085 | 35° C | 44% | 1014.8 hPa | 0 mm | - | 113 W/m² | - |
| 1788559780 | 35° C | 43% | 1014.4 hPa | 0 mm | - | 130 W/m² | - |
| 1788559479 | 35° C | 43% | 1014.7 hPa | 0 mm | - | 140 W/m² | - |
| 1788559175 | 35° C | 43% | 1014.6 hPa | 0 mm | - | 130 W/m² | - |
| 1788558870 | 35.56° C | 42% | 1014.8 hPa | 0 mm | - | 106 W/m² | - |
| 1788558566 | 35.56° C | 42% | 1015 hPa | 0 mm | - | 82 W/m² | - |
| 1788558261 | 35.56° C | 41% | 1015.1 hPa | 0 mm | - | 77 W/m² | - |
| 1788557960 | 36.11° C | 40% | 1015.1 hPa | 0 mm | - | 65 W/m² | - |
* Rain latest hour (hover to see other rain measurements)
** Current wind speed in m/s (hover to see current wind gust speed)